RH
69 70 72 75 76 78 73 76 79 82 82 83 85 84 82 91 86 92 94 94 93 89 86 83 80 82 67 59 46 35 62 49 30 28 24 24 25 23 23 23 28 28 26 24 23 23 24
72 73 76 78 79 78 75 78 78 79 83 84 85 87 85 84 90 89 96 95 93 90 86 83 78 83 76 61 32 37 38 31 29 28 27 26 27 26 29 31 31 31 28 27 25 24 23
72 76 76 75 76 79 80 80 80 80 82 83 84 87 89 86 87 90 95 95 94 91 86 83 79 76 76 50 39 49 44 42 37 32 32 31 29 31 31 33 28 28 27 22 19 25 24
74 82 82 81 80 78 79 79 80 79 80 84 83 86 87 85 90 92 95 95 94 90 86 82 83 79 73 44 54 48 49 41 38 37 32 30 29 30 34 32 27 31 29 27 16 26 22
75 80 82 84 82 82 79 79 79 80 80 84 82 82 86 89 90 95 96 96 94 88 85 81 87 82 73 52 57 45 39 36 33 33 34 21 28 34 34 36 35 33 27 26 19 17 22
72 78 77 81 79 81 82 80 81 81 80 83 82 83 88 88 90 95 96 96 95 90 81 73 73 81 64 51 46 41 47 31 33 34 34 36 45 42 46 36 29 29 37 47 29 21 30
66 70 73 76 82 82 84 82 81 82 81 83 83 81 85 89 93 95 97 98 99 98 85 85 78 61 42 43 38 40 40 34 32 37 42 44 50 47 28 35 29 26 33 29 32 27 30
67 71 74 74 76 81 83 84 81 82 82 84 83 82 84 89 91 96 91 94 73 68 84 79 80 67 52 48 49 42 33 40 40 45 43 52 52 37 31 29 32 31 31 28 22 21 31
72 74 77 77 74 79 83 85 82 83 83 83 84 82 86 92 91 98 92 85 49 55 73 77 72 71 64 50 52 47 37 42 44 45 44 47 40 35 34 37 35 33 30 29 26 38 43
78 83 83 82 78 77 81 85 84 84 84 84 84 83 87 92 98 92 94 72 54 51 77 62 91 69 54 49 50 38 39 38 47 42 46 42 33 44 41 36 36 39 36 31 39 46 50
82 87 88 86 86 84 84 88 85 85 85 85 85 85 88 94 87 96 80 66 61 48 94 39 74 47 48 48 39 44 40 50 57 44 46 38 47 38 51 45 37 44 40 42 47 55 67
83 88 89 85 88 86 85 85 84 85 85 86 84 84 91 98 94 89 71 74 73 88 92 48 70 71 62 50 36 44 41 46 49 56 57 41 52 37 33 32 38 40 52 56 62 65 83
81 89 89 82 84 86 86 85 84 86 84 85 84 84 91 94 94 88 74 86 100 97 40 54 83 70 56 60 42 44 45 57 61 69 66 57 55 48 43 46 49 46 54 68 77 87 62
76 89 88 88 89 92 89 87 86 87 87 86 84 87 91 92 88 89 91 97 98 66 45 45 66 70 60 55 45 39 45 49 47 49 40 41 35 48 43 38 51 50 53 76 70 75 53
77 80 86 88 89 90 87 87 87 87 88 87 86 97 94 96 92 95 99 100 80 60 41 65 66 78 71 58 51 43 37 38 39 41 32 47 40 38 32 34 33 53 60 49 63 75 78
75 68 82 86 87 91 90 89 88 87 86 88 98 97 94 84 94 98 99 97 73 37 38 54 72 67 73 62 59 48 45 32 36 35 36 44 49 43 37 32 32 42 46 69 80 80 82
69 76 72 82 82 85 92 92 89 87 88 87 98 100 93 84 98 99 99 97 66 34 34 36 60 72 58 63 51 52 46 37 28 38 32 40 48 61 44 47 44 47 43 60 67 78 81
73 73 75 79 84 82 83 88 88 84 83 96 98 100 94 94 100 100 100 85 58 44 52 34 59 69 62 56 60 51 48 35 32 38 45 37 56 64 62 59 41 38 45 40 79 73 77
71 70 71 74 84 82 82 82 84 84 92 97 100 100 96 94 100 100 98 84 54 55 46 59 65 67 65 67 71 52 46 57 49 39 48 43 67 78 68 74 66 63 61 48 45 70 63
72 70 72 72 74 83 83 82 82 83 89 96 100 100 100 99 100 97 99 85 72 45 72 75 86 81 73 73 75 62 72 81 69 38 67 44 70 52 39 54 72 74 57 61 57 79 67
72 71 71 73 73 82 88 86 83 83 91 95 100 100 97 100 100 99 88 81 78 87 73 74 86 82 77 85 90 88 87 97 85 83 80 54 84 72 50 68 70 72 67 59 67 62 76
70 70 74 76 79 84 90 90 91 86 90 98 100 100 99 100 92 97 93 92 76 75 81 87 83 86 87 93 77 94 92 91 90 96 90 95 98 87 80 71 75 85 77 69 65 61 61
71 69 67 74 79 84 91 90 88 86 89 100 100 98 100 96 97 98 96 91 75 61 72 70 77 81 83 82 87 98 98 92 90 96 98 98 97 100 96 79 86 99 81 71 68 58 59
71 72 68 73 76 78 90 92 86 86 84 98 98 98 100 100 98 97 90 85 78 68 69 66 71 76 79 90 90 89 89 91 96 96 89 99 99 99 100 100 99 83 69 64 69 62 60
71 73 69 70 78 78 83 88 93 86 81 98 99 97 100 100 94 90 91 82 80 69 69 82 83 74 82 91 98 100 100 99 93 85 94 96 97 99 99 98 91 66 84 80 77 75 64
69 74 73 72 76 79 78 86 86 92 79 96 100 98 99 100 99 87 89 84 94 93 88 94 98 85 93 99 100 99 97 98 100 97 84 89 93 98 100 98 94 76 78 70 68 89 80
72 71 73 72 75 78 79 76 88 86 90 96 99 98 98 100 97 97 91 92 86 95 98 99 99 100 96 100 100 99 99 88 98 98 99 99 99 98 96 98 93 72 70 67 95 79 74
76 77 71 72 76 78 80 76 79 84 85 94 99 98 98 100 98 94 94 96 98 92 98 98 97 98 100 100 100 99 99 96 97 88 94 94 97 98 99 99 95 64 72 74 71 76 78
81 75 71 70 75 79 79 76 78 81 82 86 98 95 96 98 100 97 98 98 98 93 94 94 94 96 96 99 100 100 100 99 92 91 84 97 89 91 90 85 68 62 66 62 65 69 68
Wind_Speed
29 28 27 25 24 23 25 23 21 21 19 16 13 13 12 18 19 15 13 12 10 9 8 7 7 9 5 1 10 4 3 4 4 3 2 1 1 3 3 2 2 3 3 3 3 8 6
27 26 26 26 27 26 27 25 24 23 22 18 16 15 15 16 19 15 13 12 10 9 8 6 6 8 2 4 4 5 9 2 3 2 2 2 2 2 1 2 2 1 4 7 6 6 5
29 29 30 30 29 28 27 25 25 24 24 22 19 15 14 16 19 17 15 13 11 8 8 5 4 3 3 14 4 7 4 2 2 2 1 1 2 3 2 2 3 3 6 7 5 4 9
32 33 32 31 31 31 30 28 27 27 26 25 21 19 16 15 16 17 16 14 12 10 8 4 1 1 8 7 2 8 3 3 3 2 2 1 1 3 2 2 6 3 3 3 4 3 3
31 30 29 31 32 33 33 31 30 29 28 28 25 20 19 14 9 17 17 14 12 11 6 6 1 2 9 4 4 8 6 5 4 2 1 0 3 2 2 4 4 4 5 4 9 6 1
32 32 29 27 29 33 34 32 31 31 30 30 27 22 19 14 11 17 18 15 11 11 3 2 2 1 6 6 5 4 4 8 3 6 2 3 5 2 3 4 7 5 4 5 7 3 2
34 34 33 30 28 28 31 33 32 31 31 32 29 24 20 17 8 21 19 10 8 5 9 8 8 5 2 5 4 3 5 7 5 5 7 3 4 10 17 7 3 3 4 5 4 4 3
33 35 35 33 31 28 30 32 32 32 33 32 31 27 23 20 18 23 18 14 19 5 8 13 6 14 13 3 3 5 9 8 7 7 7 3 13 11 4 7 8 8 11 10 6 10 3
32 36 35 36 35 30 27 30 32 32 33 33 31 26 23 21 17 15 23 27 12 6 3 7 23 8 6 8 6 8 10 6 6 8 11 10 6 12 10 6 7 8 10 6 7 6 5
33 37 37 38 35 33 28 27 29 32 33 33 32 28 25 20 13 16 23 24 12 5 3 7 10 12 10 4 8 10 9 8 4 15 8 8 7 3 6 8 10 11 9 11 5 3 6
36 41 45 40 34 31 27 25 28 30 33 34 32 29 25 27 9 19 18 18 12 4 5 11 11 7 17 22 9 9 7 2 8 8 9 10 9 15 7 9 13 8 6 9 4 4 3
37 43 40 28 25 27 28 26 27 30 33 35 32 29 25 17 13 13 22 16 11 8 14 5 9 13 13 16 12 4 7 2 5 5 3 6 3 8 10 7 13 6 3 2 4 3 7
35 40 37 23 18 24 30 30 29 30 33 34 30 25 20 7 16 19 25 16 13 17 5 9 8 14 16 13 20 11 18 15 11 8 12 6 9 2 5 6 3 6 7 2 3 2 11
33 38 36 30 26 18 20 29 27 29 31 31 29 23 19 18 17 13 18 20 20 24 20 5 11 17 15 12 15 20 18 19 21 4 5 14 11 17 8 10 9 13 11 9 9 7 6
31 35 35 31 22 12 10 19 24 27 31 30 25 9 9 17 16 15 18 24 20 29 31 10 13 16 10 10 10 15 23 23 20 21 14 8 10 2 11 10 16 7 13 5 4 1 3
32 30 33 33 31 20 6 16 22 26 30 30 10 8 14 18 19 17 16 18 14 20 28 7 11 9 12 19 9 16 18 17 15 28 5 5 3 5 4 7 13 8 6 4 1 4 7
31 29 30 32 31 28 16 9 15 23 29 29 6 4 7 21 12 10 14 13 28 21 13 30 12 8 8 14 14 17 16 6 29 23 23 6 4 3 8 10 14 6 14 4 6 6 6
27 28 29 29 29 28 25 22 15 24 26 19 6 5 5 22 16 6 13 15 18 23 4 18 8 6 11 12 12 14 18 12 18 18 28 17 4 6 9 1 8 11 10 18 5 6 7
27 28 29 29 28 26 25 22 17 15 24 5 3 3 3 20 11 8 10 23 8 10 20 11 8 3 3 10 8 10 10 6 11 18 22 16 7 3 5 4 2 5 6 7 14 3 19
26 27 27 29 27 27 25 24 23 17 25 7 4 4 4 9 5 11 16 25 10 21 6 6 6 5 6 6 4 15 8 1 4 15 8 19 5 12 17 6 8 8 14 13 13 7 13
27 27 26 28 28 28 29 29 28 23 22 8 4 3 3 6 8 10 19 25 21 7 5 6 2 7 9 7 6 7 6 4 5 5 5 11 7 8 15 3 5 7 8 19 18 23 13
26 26 25 27 28 32 35 39 26 26 26 7 3 3 4 5 14 18 23 22 31 14 11 7 7 8 4 6 5 6 8 5 6 1 5 1 3 4 12 10 9 8 10 16 15 20 23
26 26 26 27 29 34 40 19 32 32 21 4 3 3 2 8 13 16 16 19 34 21 7 7 10 6 8 9 6 5 6 6 5 8 6 6 5 4 19 7 9 12 33 20 20 19 17
26 27 27 29 31 33 37 27 20 29 15 3 2 0 2 3 11 11 19 13 19 32 22 12 10 10 6 10 7 4 4 3 3 5 5 8 6 4 4 4 10 10 2 16 25 23 18
24 27 27 28 29 29 31 32 31 23 17 4 1 4 1 2 5 14 15 17 8 17 20 5 5 3 11 9 4 3 2 4 10 14 11 7 6 3 4 7 8 14 8 10 12 21 17
25 25 26 25 26 26 25 26 26 24 21 4 2 2 2 1 2 3 14 17 8 11 17 8 1 8 8 4 4 7 6 6 6 5 16 17 12 8 4 5 10 4 3 5 8 18 15
25 24 24 24 23 24 23 22 21 24 16 3 1 3 2 2 2 4 11 13 7 7 7 5 7 6 4 5 4 4 6 8 9 8 6 7 10 20 15 9 9 6 7 11 9 6 15
24 23 22 21 21 21 21 21 21 21 17 4 2 2 3 2 3 2 2 5 4 6 7 5 6 0 2 7 5 5 5 8 5 8 10 11 9 6 7 10 14 9 12 15 5 2 6
24 22 20 18 18 18 18 19 21 20 17 4 3 3 3 5 2 3 6 9 4 2 6 8 3 5 6 4 4 4 4 4 6 7 4 8 8 9 10 8 2 8 3 3 5 6 5
Wind_Direction
298 292 285 283 277 269 261 258 254 246 240 245 249 254 266 318 228 209 202 198 212 235 257 275 304 327 343 270 252 325 38 1 338 359 34 61 123 134 186 233 329 196 277 265 290 310 256
292 287 283 277 271 266 260 254 252 247 237 235 241 246 252 264 302 208 191 191 203 213 232 259 300 323 262 229 273 62 20 20 22 23 39 71 138 142 163 260 181 286 276 278 275 234 240
296 290 281 273 269 263 254 248 245 242 240 232 233 235 243 251 306 211 188 183 189 200 213 235 298 320 251 228 128 328 329 289 281 48 88 113 126 126 144 294 322 317 329 326 241 236 229
301 288 276 265 261 256 250 245 243 240 234 227 226 225 236 240 306 205 182 173 181 180 194 194 319 358 247 247 296 300 174 289 221 202 213 187 82 111 156 295 1 332 48 337 288 160 244
313 310 284 267 262 255 246 242 237 234 231 225 222 222 232 238 272 195 171 161 172 165 169 155 114 147 267 298 195 240 158 202 165 150 51 99 68 136 68 98 7 4 246 240 316 234 195
320 318 316 288 272 259 241 237 234 228 227 220 217 216 221 230 237 222 160 138 156 126 148 153 233 67 258 232 211 185 182 154 150 111 72 97 52 102 53 123 228 200 222 240 250 306 133
322 317 312 308 294 263 241 236 230 225 222 215 209 214 216 223 239 203 138 129 160 197 201 184 184 221 8 297 300 188 168 125 116 106 166 199 137 200 217 191 192 127 212 255 259 280 10
319 320 311 302 297 287 244 236 229 222 217 212 206 204 210 209 206 195 165 191 193 129 203 245 249 244 282 9 290 212 141 136 151 172 135 95 229 216 146 189 216 248 262 265 284 273 195
318 316 308 300 290 284 261 234 229 220 212 206 206 200 202 201 197 225 185 186 177 129 177 199 214 199 224 151 234 215 157 146 142 157 188 188 210 198 196 194 186 224 228 242 239 325 269
324 315 303 291 279 273 262 237 230 217 208 201 198 198 195 197 195 219 192 174 168 151 293 224 187 234 206 166 256 202 188 147 176 188 161 232 203 163 181 221 188 237 206 242 246 104 249
329 317 306 284 255 253 250 237 225 213 206 199 195 195 193 191 196 215 170 165 154 70 239 191 178 181 174 191 126 221 170 174 169 176 145 222 180 193 182 200 178 219 172 190 198 175 280
336 322 325 316 247 238 233 228 223 213 204 194 192 193 196 196 210 233 160 149 127 147 225 200 138 172 146 200 191 96 160 153 158 168 256 212 207 162 200 195 175 161 85 93 80 141 262
345 330 337 322 273 242 231 223 206 202 198 189 188 188 185 189 205 212 156 152 169 194 181 184 174 172 174 177 194 166 184 185 173 165 210 171 231 201 164 128 122 156 112 280 308 187 245
349 341 345 348 336 292 230 193 189 188 185 183 182 180 205 210 210 204 181 178 185 179 183 143 153 161 189 143 204 183 175 198 215 173 142 203 241 188 181 186 159 186 169 175 200 206 269
344 350 351 356 344 315 184 181 180 179 180 179 172 183 212 220 187 202 198 195 171 179 189 148 132 151 194 189 174 177 197 203 198 200 192 164 237 175 199 177 159 195 211 174 344 132 310
346 354 354 358 2 349 251 186 185 180 176 171 172 192 227 218 185 198 218 191 199 172 173 170 161 172 173 178 162 186 180 210 209 201 201 204 291 198 145 163 227 159 170 99 132 237 237
346 350 356 356 360 2 357 249 189 180 174 166 172 200 245 209 180 199 236 184 202 183 132 184 179 160 179 173 186 191 189 220 195 189 194 172 138 307 128 202 173 171 230 193 160 168 190
347 350 352 353 353 355 356 358 219 188 178 156 152 208 221 168 197 186 220 195 185 178 147 173 140 135 167 166 173 193 202 213 190 162 193 189 150 198 208 279 169 199 201 200 166 217 233
346 350 350 350 349 347 344 338 334 234 166 150 167 253 235 176 198 197 173 200 163 159 195 169 150 161 171 159 158 188 191 202 171 175 173 163 212 105 325 350 290 190 195 185 221 39 236
347 346 348 344 345 339 332 321 305 292 182 139 178 207 243 197 153 165 178 190 179 181 142 114 128 121 127 153 214 188 178 108 155 189 149 160 160 196 221 186 151 194 212 200 186 200 245
343 343 343 341 340 336 324 303 280 258 195 148 197 239 272 179 185 172 187 180 184 142 109 133 65 179 164 151 149 168 138 118 40 127 104 173 209 198 237 126 152 181 192 204 205 224 205
342 342 341 341 340 340 323 297 237 202 187 184 169 198 243 185 166 155 192 181 188 194 141 199 132 163 168 141 178 154 124 157 174 110 133 52 248 170 254 214 199 229 220 226 226 234 242
341 344 344 344 344 347 340 327 166 169 160 121 150 276 314 176 165 164 187 170 198 197 239 154 143 129 195 198 89 64 69 73 134 158 168 154 139 122 248 239 257 235 236 232 234 232 233
345 343 348 349 350 359 357 8 137 155 143 130 137 94 210 180 170 171 171 164 171 207 209 197 164 199 165 99 94 74 70 64 108 240 171 166 150 155 214 84 230 251 216 224 229 238 227
344 345 348 350 352 1 7 11 20 175 160 90 146 152 250 348 175 184 162 190 170 199 206 157 205 268 94 59 91 103 26 14 248 243 226 215 139 173 199 209 310 277 187 171 189 244 213
345 346 348 352 352 358 12 16 11 19 190 100 110 75 4 27 235 95 173 186 155 180 191 173 327 144 98 115 147 173 176 158 187 223 210 218 205 178 165 206 215 329 219 136 86 259 151
341 346 348 350 353 356 4 16 16 10 33 94 62 106 139 272 26 343 181 183 151 147 150 136 156 173 152 144 159 157 179 174 178 188 171 186 206 224 232 238 269 225 138 112 162 254 192
338 341 348 350 354 356 1 8 13 8 23 43 38 316 116 65 29 341 311 126 100 169 156 162 123 329 81 169 179 167 176 199 178 177 173 170 171 194 201 206 244 160 153 182 196 11 183
342 343 350 351 353 356 1 7 6 14 25 70 0 346 349 84 351 313 62 50 38 21 120 180 129 150 165 147 173 141 170 172 175 222 179 207 196 171 199 214 195 193 177 152 134 147 173